• In Slovakia
  • List of Countries
  • For 7 days
  • Water Temperature
  • Satellite Maps
  • Weather Map
  • Weather Widgets
  • user-avatar
    Login

    Hourly Weather Kalat

    Today, 23 June, Saturday

    Time Temperature Precipitation Wind Pressure Humidity
    00:00 +4°C° 0.2 mm 2 mps 477 mmHg 74%
    01:00 +3°C° 0.2 mm 2 mps 477 mmHg 75%
    02:00 +4°C° 0.2 mm 1 mps 477 mmHg 75%
    03:00 +4°C° 0.1 mm 1 mps 476 mmHg 76%
    04:00 +4°C° 0.1 mm 1 mps 476 mmHg 76%
    05:00 +3°C° 0 mm 1 mps 476 mmHg 74%
    06:00 +4°C° 0 mm 1 mps 476 mmHg 69%
    07:00 +5°C° 0 mm 1 mps 477 mmHg 64%
    08:00 +6°C° 0 mm 1 mps 478 mmHg 58%
    09:00 +7°C° 0.1 mm 1 mps 478 mmHg 55%
    10:00 +7°C° 0.1 mm 2 mps 479 mmHg 53%
    11:00 +8°C° 0.1 mm 2 mps 480 mmHg 50%
    12:00 +8°C° 0.3 mm 2 mps 480 mmHg 50%
    13:00 +9°C° 0.3 mm 3 mps 480 mmHg 50%
    14:00 +9°C° 0.3 mm 3 mps 480 mmHg 49%
    15:00 +9°C° 0.3 mm 3 mps 480 mmHg 50%
    16:00 +9°C° 0.3 mm 3 mps 480 mmHg 51%
    17:00 +9°C° 0.3 mm 3 mps 479 mmHg 52%
    18:00 +8°C° 0.1 mm 3 mps 479 mmHg 54%
    19:00 +7°C° 0.1 mm 3 mps 479 mmHg 56%
    20:00 +6°C° 0.1 mm 2 mps 478 mmHg 58%
    21:00 +6°C° 0 mm 2 mps 478 mmHg 60%
    22:00 +5°C° 0 mm 2 mps 478 mmHg 62%
    23:00 +4°C° 0 mm 2 mps 477 mmHg 64%

    Tomorrow, 24 June, Sunday

    Time Temperature Precipitation Wind Pressure Humidity
    00:00 +5°C° 0 mm 1 mps 477 mmHg 66%
    01:00 +4°C° 0 mm 1 mps 476 mmHg 67%
    02:00 +4°C° 0 mm 1 mps 476 mmHg 68%
    03:00 +4°C° 0 mm 1 mps 476 mmHg 67%
    04:00 +3°C° 0 mm 1 mps 475 mmHg 67%
    05:00 +3°C° 0 mm 1 mps 475 mmHg 67%
    06:00 +4°C° 0 mm 1 mps 476 mmHg 61%
    07:00 +4°C° 0 mm 2 mps 477 mmHg 54%
    08:00 +6°C° 0 mm 2 mps 478 mmHg 48%
    09:00 +7°C° 0 mm 2 mps 479 mmHg 44%
    10:00 +8°C° 0 mm 2 mps 479 mmHg 41%
    11:00 +9°C° 0 mm 3 mps 480 mmHg 37%
    12:00 +9°C° 0.1 mm 3 mps 480 mmHg 38%
    13:00 +10°C° 0.1 mm 3 mps 480 mmHg 38%
    14:00 +10°C° 0.1 mm 3 mps 480 mmHg 39%
    15:00 +10°C° 0.1 mm 4 mps 480 mmHg 42%
    16:00 +8°C° 0.1 mm 4 mps 480 mmHg 45%
    17:00 +8°C° 0.1 mm 4 mps 480 mmHg 48%
    18:00 +7°C° 0.1 mm 4 mps 479 mmHg 52%
    19:00 +6°C° 0.1 mm 4 mps 479 mmHg 56%
    20:00 +5°C° 0.1 mm 3 mps 478 mmHg 59%
    21:00 +4°C° 0 mm 3 mps 478 mmHg 61%
    22:00 +3°C° 0 mm 3 mps 478 mmHg 63%
    23:00 +2°C° 0 mm 3 mps 477 mmHg 65%

    Day after tomorrow, 25 June, Monday

    Time Temperature Precipitation Wind Pressure Humidity
    00:00 +2°C° 0 mm 3 mps 477 mmHg 66%
    01:00 +2°C° 0 mm 3 mps 476 mmHg 66%
    02:00 +1°C° 0 mm 3 mps 476 mmHg 66%
    03:00 +1°C° 0 mm 3 mps 476 mmHg 64%
    04:00 +1°C° 0 mm 3 mps 476 mmHg 63%
    05:00 0°C° 0 mm 3 mps 475 mmHg 61%
    06:00 +2°C° 0 mm 3 mps 476 mmHg 55%
    07:00 +3°C° 0 mm 3 mps 477 mmHg 49%
    08:00 +4°C° 0 mm 3 mps 478 mmHg 43%
    09:00 +7°C° 0 mm 3 mps 479 mmHg 39%
    10:00 +8°C° 0 mm 3 mps 480 mmHg 35%
    11:00 +9°C° 0 mm 3 mps 480 mmHg 31%
    12:00 +10°C° 0 mm 3 mps 481 mmHg 31%
    13:00 +11°C° 0 mm 3 mps 481 mmHg 30%
    14:00 +11°C° 0 mm 3 mps 481 mmHg 30%
    15:00 +11°C° 0 mm 4 mps 481 mmHg 32%
    16:00 +11°C° 0 mm 4 mps 480 mmHg 34%
    17:00 +11°C° 0 mm 4 mps 480 mmHg 36%
    18:00 +8°C° 0 mm 4 mps 479 mmHg 41%
    19:00 +8°C° 0 mm 3 mps 479 mmHg 47%
    20:00 +7°C° 0 mm 3 mps 478 mmHg 52%
    21:00 +5°C° 0 mm 3 mps 478 mmHg 55%
    22:00 +4°C° 0 mm 3 mps 478 mmHg 58%
    23:00 +3°C° 0 mm 3 mps 477 mmHg 62%

    26 June, Tuesday

    Time Temperature Precipitation Wind Pressure Humidity
    00:00 +3°C° 0 mm 3 mps 477 mmHg 63%
    01:00 +2°C° 0 mm 3 mps 476 mmHg 64%
    02:00 +3°C° 0 mm 2 mps 476 mmHg 65%
    03:00 +3°C° 0 mm 2 mps 476 mmHg 64%
    04:00 +2°C° 0 mm 2 mps 475 mmHg 64%
    05:00 +2°C° 0 mm 2 mps 475 mmHg 63%
    06:00 +3°C° 0 mm 2 mps 476 mmHg 53%
    07:00 +4°C° 0 mm 2 mps 477 mmHg 43%
    08:00 +5°C° 0 mm 3 mps 478 mmHg 33%
    09:00 +7°C° 0 mm 2 mps 479 mmHg 30%
    10:00 +8°C° 0 mm 2 mps 480 mmHg 26%
    11:00 +10°C° 0 mm 2 mps 480 mmHg 22%
    12:00 +10°C° 0 mm 3 mps 481 mmHg 22%
    13:00 +11°C° 0 mm 3 mps 481 mmHg 22%
    14:00 +12°C° 0 mm 3 mps 481 mmHg 22%
    15:00 +12°C° 0.2 mm 3 mps 481 mmHg 25%
    16:00 +11°C° 0.2 mm 3 mps 480 mmHg 28%
    17:00 +11°C° 0.2 mm 3 mps 480 mmHg 31%
    18:00 +10°C° 0.1 mm 3 mps 480 mmHg 35%
    19:00 +9°C° 0.1 mm 2 mps 479 mmHg 39%
    20:00 +8°C° 0.1 mm 2 mps 479 mmHg 43%
    21:00 +7°C° 0 mm 2 mps 479 mmHg 45%
    22:00 +8°C° 0 mm 1 mps 478 mmHg 48%
    23:00 +7°C° 0 mm 1 mps 478 mmHg 50%

    27 June, Wednesday

    Time Temperature Precipitation Wind Pressure Humidity
    00:00 +6°C° 0 mm 1 mps 478 mmHg 52%
    01:00 +6°C° 0 mm 1 mps 477 mmHg 54%
    02:00 +6°C° 0 mm 1 mps 477 mmHg 56%
    03:00 +5°C° 0 mm 1 mps 476 mmHg 57%
    04:00 +5°C° 0 mm 1 mps 476 mmHg 58%
    05:00 +3°C° 0 mm 0 mps 476 mmHg 59%
    06:00 +5°C° 0 mm 0 mps 477 mmHg 53%
    07:00 +7°C° 0 mm 1 mps 478 mmHg 47%
    08:00 +9°C° 0 mm 1 mps 479 mmHg 41%
    09:00 +10°C° 0 mm 1 mps 480 mmHg 37%
    10:00 +10°C° 0 mm 2 mps 481 mmHg 33%
    11:00 +12°C° 0 mm 2 mps 481 mmHg 29%
    12:00 +13°C° 0 mm 2 mps 481 mmHg 29%
    13:00 +13°C° 0 mm 3 mps 482 mmHg 28%
    14:00 +13°C° 0 mm 3 mps 482 mmHg 28%
    15:00 +12°C° 0.1 mm 3 mps 481 mmHg 32%
    16:00 +12°C° 0.1 mm 3 mps 481 mmHg 36%
    17:00 +11°C° 0.1 mm 3 mps 480 mmHg 39%
    18:00 +10°C° 0.2 mm 3 mps 480 mmHg 44%
    19:00 +9°C° 0.2 mm 2 mps 480 mmHg 49%
    20:00 +8°C° 0.2 mm 2 mps 479 mmHg 54%
    21:00 +9°C° 0 mm 1 mps 479 mmHg 57%
    22:00 +8°C° 0 mm 1 mps 479 mmHg 60%
    23:00 +8°C° 0 mm 1 mps 479 mmHg 62%

    28 June, Thursday

    Time Temperature Precipitation Wind Pressure Humidity
    00:00 +7°C° 0 mm 1 mps 478 mmHg 64%
    01:00 +7°C° 0 mm 1 mps 478 mmHg 65%
    02:00 +5°C° 0 mm 0 mps 478 mmHg 67%
    03:00 +5°C° 0 mm 0 mps 477 mmHg 68%
    04:00 +5°C° 0 mm 0 mps 477 mmHg 70%
    05:00 +4°C° 0 mm 0 mps 477 mmHg 71%
    06:00 +6°C° 0 mm 0 mps 478 mmHg 64%
    07:00 +8°C° 0 mm 1 mps 479 mmHg 57%
    08:00 +9°C° 0 mm 1 mps 480 mmHg 49%
    09:00 +10°C° 0 mm 1 mps 481 mmHg 45%
    10:00 +10°C° 0 mm 2 mps 481 mmHg 40%
    11:00 +12°C° 0 mm 2 mps 482 mmHg 35%
    12:00 +12°C° 0.3 mm 2 mps 482 mmHg 38%
    13:00 +11°C° 0.3 mm 3 mps 481 mmHg 40%
    14:00 +11°C° 0.3 mm 3 mps 481 mmHg 43%
    15:00 +10°C° 0.4 mm 3 mps 480 mmHg 47%
    16:00 +10°C° 0.4 mm 3 mps 480 mmHg 50%
    17:00 +9°C° 0.4 mm 3 mps 480 mmHg 54%
    18:00 +8°C° 0.2 mm 2 mps 479 mmHg 56%
    19:00 +8°C° 0.2 mm 2 mps 479 mmHg 59%
    20:00 +8°C° 0.2 mm 1 mps 479 mmHg 61%
    21:00 +8°C° 0.1 mm 1 mps 479 mmHg 62%
    22:00 +8°C° 0.1 mm 1 mps 479 mmHg 62%
    23:00 +7°C° 0.1 mm 1 mps 479 mmHg 63%
    Show more